Notices

What's New in latest Release from April 7th, 2021:

- Updated Glossary, including Speed of Maximum Gust, and Total Hourly Precipitation

- Updated national and regional climate services offices contacts and prices information

- Addition of station inventory lists for 1981-2010, 1971-2000, and 1961-1990 Normals.

If you haven't already, please take our survey and provide feedback about our website: https://eccc.sondage-survey.ca/f/LanguageSelection.aspx?s=442ca660-fcf1-47c0-95a9-59707d6fd709

Hourly Data Report for December 01, 2016

CARBERRY CS
MANITOBA

49°54'20.900" N
99°21'26.800" W
383.50 m
5010547
71170
WZE

Download Data

Hourly Data (December 2016)
Hourly Data Report for December 1, 2016
TIME
LST
Temp Definition
°C
Dew Point Definition
°C
Rel Hum Definition
%
Precip. Amount Definition
mm

Wind Dir Definition
10's deg

Wind Spd Definition
km/h
Visibility Definition
km
Stn Press Definition
kPa
Hmdx Definition


Wind Chill Definition


Weather Definition


00:00 -1.4 -1.9 97 0.0 1 13   96.71   -6 LegendNANA
01:00 -1.5 -2.0 97 0.0 1 13   96.75   -6 LegendNANA
02:00 -2.0 -2.5 96 0.2 36 14   96.78   -7 LegendNANA
03:00 -2.1 -2.7 96 0.0 36 14   96.82   -7 LegendNANA
04:00 -2.2 -2.7 96 0.0 36 15   96.84   -7 LegendNANA
05:00 -2.3 -3.0 95 0.0 2 17   96.86   -8 LegendNANA
06:00 -2.4 -3.0 96 0.0 1 12   96.90   -7 LegendNANA
07:00 -2.5 -3.1 96 0.0 35 13   96.96   -7 LegendNANA
08:00 -2.7 -3.3 95 0.0 36 16   96.97   -8 LegendNANA
09:00 -2.8 -3.5 95 0.0 36 16   97.01   -8 LegendNANA
10:00 -2.7 -3.5 95 0.0 1 13   97.05   -7 LegendNANA
11:00 -2.5 -3.3 94 0.0 36 13   97.08   -7 LegendNANA
12:00 -2.8 -3.7 93 0.0 2 14   97.06   -8 LegendNANA
13:00 -2.6 -3.7 92 0.0 2 14   97.06   -7 LegendNANA
14:00 -2.6 -3.7 92 0.0 33 8   97.07   -6 LegendNANA
15:00 -3.1 -4.4 90 0.0 32 6   97.09   -6 LegendNANA
16:00 -5.9 -6.9 93 0.0 30 6   97.13   -9 LegendNANA
17:00 -3.2 -3.9 95 0.0 24 4   97.14   -5 LegendNANA
18:00 -3.0 -3.6 95 0.0 24 3   97.18   -4 LegendNANA
19:00 -2.8 -3.5 95 0.0 0 1   97.22   -3 LegendNANA
20:00 -3.1 -3.8 95 0.0 0 1   97.26   -4 LegendNANA
21:00 -2.7 -3.4 95 0.0 23 3   97.30   -4 LegendNANA
22:00 -2.6 -3.3 95 0.0 24 3   97.31   -4 LegendNANA
23:00 -2.9 -3.6 95 0.0 3 6   97.33   -5 LegendNANA

Notes on Data Quality.

Legend

  • E = Estimated
  • M = Missing
  • NA = Not Available*
  • [empty] = Indicates an unobserved value
Date modified: